Location: Marysville Observatory
(48.1092°N, 122.1645°W)
Time: 01:46:37
(UTC-07:00)

ISS - Visible Passes

Search period start: 24 July 2016 00:00
Search period end: 03 August 2016 00:00
Orbit: 401 x 404 km, 51.6° (Epoch: 24 July)

Date Brightness Start Highest point End Pass type
(mag) Time Alt. Az. Time Alt. Az. Time Alt. Az.
24 Jul -0.7 00:21:07 12° ENE 00:21:07 12° ENE 00:21:27 10° ENE visible
24 Jul -2.3 01:53:42 32° WNW 01:54:46 45° N 01:57:55 10° ENE visible
24 Jul -2.6 03:28:19 10° WNW 03:31:32 54° NNE 03:34:45 10° E visible
25 Jul -2.4 01:02:17 46° NNE 01:02:17 46° NNE 01:04:57 10° ENE visible
25 Jul -2.2 02:35:21 10° WNW 02:38:31 45° N 02:41:40 10° E visible
25 Jul -3.4 04:11:51 10° WNW 04:15:05 70° SSW 04:18:20 10° ESE visible
25 Jul -2.3 22:29:44 10° SSW 22:32:10 26° SSE 22:32:10 26° SSE visible
26 Jul -1.7 00:10:23 27° ENE 00:10:23 27° ENE 00:12:01 10° ENE visible
26 Jul -2.1 01:42:50 13° WNW 01:45:29 42° N 01:48:36 10° ENE visible
26 Jul -3.3 03:18:54 10° WNW 03:22:10 78° NNE 03:25:26 10° ESE visible
26 Jul -2.1 04:55:42 10° W 04:58:20 23° SW 05:00:58 10° SSE visible
26 Jul -1.7 21:37:43 10° S 21:39:48 16° SE 21:41:54 10° E visible
26 Jul -3.5 23:12:34 10° WSW 23:15:49 80° SSE 23:19:05 10° ENE visible
27 Jul -2.2 00:49:17 10° W 00:52:26 44° N 00:55:35 10° ENE visible
27 Jul -2.8 02:25:58 10° WNW 02:29:12 57° NNE 02:32:25 10° E visible
27 Jul -2.9 04:02:30 10° WNW 04:05:34 37° SSW 04:08:36 10° SE visible
27 Jul -3.2 22:19:46 10° SW 22:22:56 50° SSE 22:26:07 10° ENE visible
27 Jul -2.5 23:56:12 10° W 23:59:24 50° NNW 00:02:36 10° ENE visible
28 Jul -1.8 01:33:00 10° WNW 01:41:17 - E 01:35:08 33° NW visible
28 Jul -1.9 03:14:23 25° SE 03:14:23 25° SE 03:15:56 10° SE visible
28 Jul -1.4 04:47:29 10° WSW 04:48:36 12° SW 04:49:50 10° SSW visible
28 Jul -2.5 21:27:12 10° SSW 21:30:06 30° SE 21:33:02 10° E visible
28 Jul -3.0 23:03:09 10° W 23:06:24 65° NNW 23:09:39 10° ENE visible
29 Jul -2.1 00:40:00 10° WNW 00:43:08 42° N 00:43:21 42° NNE visible
29 Jul -3.4 22:10:10 10° WSW 22:13:26 89° S 22:16:43 10° ENE visible
29 Jul -2.1 23:46:57 10° WNW 23:50:05 43° N 23:51:55 21° ENE visible
30 Jul -0.9 01:23:35 10° WNW 01:24:30 17° WNW 01:24:30 17° WNW visible
30 Jul -3.3 21:17:19 10° SW 21:20:31 58° SSE 21:23:44 10° ENE visible
30 Jul -2.4 22:53:52 10° W 22:57:02 48° N 23:00:13 10° ENE visible
31 Jul -2.1 00:30:37 10° WNW 00:33:09 41° NNW 00:33:09 41° NNW visible
31 Jul -2.8 22:00:47 10° W 22:04:01 60° NNW 22:07:15 10° ENE visible
31 Jul -2.2 23:37:38 10° WNW 23:40:46 43° N 23:41:51 31° NE visible
01 Aug -0.5 01:14:08 10° WNW 01:14:26 12° WNW 01:14:26 12° WNW visible
01 Aug -2.1 22:44:35 10° WNW 22:47:42 42° N 22:50:33 12° ENE visible
02 Aug -1.8 00:21:10 10° WNW 00:23:08 32° NW 00:23:08 32° NW visible
02 Aug -2.3 21:51:29 10° W 21:54:39 46° N 21:57:49 10° ENE visible
02 Aug -2.7 23:28:13 10° WNW 23:31:25 52° NNE 23:31:51 47° NE visible
